Location: Grange Rosano
(44.4500°N, 6.9667°E)
Time: 16:18:34
(UTC+00:00)

ADEOS II - Pass Details

Date: 01 October 2022
Orbit: 799 x 799 km, 98.6° (Epoch: 30 November)

Event Time Altitude Azimuth Distance (km) Brightness Sun altitude
Rises 02:45:57 0° 4° (N) 3,319 5.7 -29.1°
Reaches altitude 10° 02:48:33 10° 353° (N) 2,385 4.7 -28.7°
Enters shadow 02:50:37 20° 336° (NNW) 1,777 3.9 -28.4°
